When you browse on this site, cookies collect data to enhance your experience and personalize the content and advertising you see.
Visit our Privacy Policy to learn more. By continuing to use the site, you agree to this use of cookies and data.
  • In Italy
  • List of Countries
  • For 7 days
  • Water Temperature
  • Satellite Maps
  • Weather Map
  • Weather Widgets
  • user-avatar
    Login

    Hourly Weather Satif

    Today, 19 January, Saturday

    Time Temperature Precipitation Wind Pressure Humidity
    00:00 +3°C° 0 mm 1 mps 669 mmHg 89%
    01:00 +3°C° 0 mm 1 mps 669 mmHg 88%
    02:00 +3°C° 0 mm 1 mps 668 mmHg 87%
    03:00 +3°C° 0 mm 1 mps 668 mmHg 86%
    04:00 +3°C° 0 mm 1 mps 668 mmHg 86%
    05:00 +3°C° 0 mm 1 mps 668 mmHg 86%
    06:00 +2°C° 0 mm 1 mps 668 mmHg 86%
    07:00 +4°C° 0 mm 1 mps 668 mmHg 81%
    08:00 +5°C° 0 mm 1 mps 669 mmHg 76%
    09:00 +6°C° 0 mm 1 mps 669 mmHg 71%
    10:00 +6°C° 0 mm 2 mps 669 mmHg 67%
    11:00 +7°C° 0 mm 2 mps 669 mmHg 63%
    12:00 +7°C° 0 mm 2 mps 669 mmHg 59%
    13:00 +7°C° 0.1 mm 2 mps 669 mmHg 60%
    14:00 +7°C° 0.1 mm 2 mps 669 mmHg 61%
    15:00 +7°C° 0.1 mm 3 mps 669 mmHg 63%
    16:00 +6°C° 0.1 mm 2 mps 669 mmHg 69%
    17:00 +5°C° 0.1 mm 2 mps 668 mmHg 76%
    18:00 +5°C° 0.1 mm 1 mps 668 mmHg 82%
    19:00 +5°C° 0 mm 1 mps 668 mmHg 84%
    20:00 +4°C° 0 mm 1 mps 668 mmHg 86%
    21:00 +3°C° 0 mm 1 mps 668 mmHg 88%
    22:00 +3°C° 0 mm 1 mps 668 mmHg 88%
    23:00 +3°C° 0 mm 1 mps 668 mmHg 87%

    Tomorrow, 20 January, Sunday

    Time Temperature Precipitation Wind Pressure Humidity
    00:00 +2°C° 0 mm 1 mps 668 mmHg 87%
    01:00 +2°C° 0 mm 1 mps 668 mmHg 84%
    02:00 +2°C° 0 mm 1 mps 667 mmHg 82%
    03:00 +2°C° 0 mm 1 mps 667 mmHg 79%
    04:00 +1°C° 0 mm 2 mps 667 mmHg 78%
    05:00 +1°C° 0 mm 2 mps 667 mmHg 77%
    06:00 +1°C° 0 mm 2 mps 666 mmHg 76%
    07:00 +2°C° 0 mm 2 mps 667 mmHg 75%
    08:00 +2°C° 0 mm 3 mps 667 mmHg 74%
    09:00 +4°C° 0 mm 3 mps 667 mmHg 73%
    10:00 +4°C° 0.7 mm 4 mps 667 mmHg 75%
    11:00 +4°C° 0.7 mm 4 mps 666 mmHg 77%
    12:00 +4°C° 0.7 mm 4 mps 666 mmHg 80%
    13:00 +4°C° 0.4 mm 4 mps 666 mmHg 79%
    14:00 +5°C° 0.4 mm 5 mps 665 mmHg 79%
    15:00 +5°C° 0.4 mm 5 mps 665 mmHg 78%
    16:00 +4°C° 1.2 mm 4 mps 665 mmHg 83%
    17:00 +4°C° 1.2 mm 3 mps 665 mmHg 87%
    18:00 +3°C° 1.2 mm 3 mps 665 mmHg 91%
    19:00 +4°C° 0.1 mm 2 mps 665 mmHg 92%
    20:00 +3°C° 0.1 mm 2 mps 665 mmHg 92%
    21:00 +3°C° 0.1 mm 2 mps 665 mmHg 93%
    22:00 +3°C° 0 mm 2 mps 665 mmHg 93%
    23:00 +3°C° 0 mm 2 mps 665 mmHg 94%

    Day after tomorrow, 21 January, Monday

    Time Temperature Precipitation Wind Pressure Humidity
    00:00 +3°C° 0 mm 2 mps 665 mmHg 94%
    01:00 +3°C° 0.1 mm 2 mps 664 mmHg 94%
    02:00 +3°C° 0.1 mm 2 mps 664 mmHg 94%
    03:00 +3°C° 0.1 mm 2 mps 664 mmHg 94%
    04:00 +3°C° 0 mm 2 mps 664 mmHg 94%
    05:00 +2°C° 0 mm 2 mps 664 mmHg 95%
    06:00 +2°C° 0 mm 2 mps 664 mmHg 95%
    07:00 +3°C° 0.7 mm 2 mps 665 mmHg 93%
    08:00 +3°C° 0.7 mm 3 mps 665 mmHg 91%
    09:00 +3°C° 0.7 mm 3 mps 666 mmHg 89%
    10:00 +3°C° 1.6 mm 4 mps 666 mmHg 90%
    11:00 +2°C° 1.6 mm 5 mps 667 mmHg 91%
    12:00 +2°C° 1.6 mm 6 mps 667 mmHg 92%
    13:00 +2°C° 0.3 mm 6 mps 667 mmHg 90%
    14:00 +2°C° 0.3 mm 5 mps 667 mmHg 87%
    15:00 +2°C° 0.3 mm 5 mps 668 mmHg 84%
    16:00 +3°C° 0.1 mm 4 mps 668 mmHg 87%
    17:00 +1°C° 0.1 mm 4 mps 668 mmHg 90%
    18:00 +2°C° 0.1 mm 3 mps 669 mmHg 93%
    19:00 +2°C° 0 mm 2 mps 669 mmHg 94%
    20:00 +2°C° 0 mm 2 mps 669 mmHg 95%
    21:00 +2°C° 0 mm 2 mps 670 mmHg 96%
    22:00 +2°C° 0 mm 2 mps 670 mmHg 96%
    23:00 +2°C° 0 mm 2 mps 670 mmHg 96%

    22 January, Tuesday

    Time Temperature Precipitation Wind Pressure Humidity
    00:00 +1°C° 0 mm 2 mps 670 mmHg 96%
    01:00 +1°C° 0 mm 2 mps 669 mmHg 96%
    02:00 +1°C° 0 mm 2 mps 669 mmHg 96%
    03:00 +1°C° 0 mm 2 mps 669 mmHg 96%
    04:00 +1°C° 0 mm 2 mps 669 mmHg 96%
    05:00 +1°C° 0 mm 2 mps 669 mmHg 95%
    06:00 +2°C° 0 mm 1 mps 669 mmHg 95%
    07:00 +1°C° 0.1 mm 2 mps 670 mmHg 93%
    08:00 +2°C° 0.1 mm 2 mps 670 mmHg 90%
    09:00 +2°C° 0.1 mm 2 mps 670 mmHg 87%
    10:00 +3°C° 0 mm 2 mps 670 mmHg 83%
    11:00 +4°C° 0 mm 2 mps 670 mmHg 79%
    12:00 +4°C° 0 mm 2 mps 670 mmHg 74%
    13:00 +4°C° 0 mm 2 mps 670 mmHg 72%
    14:00 +4°C° 0 mm 2 mps 669 mmHg 70%
    15:00 +4°C° 0 mm 2 mps 669 mmHg 67%
    16:00 +4°C° 0 mm 2 mps 668 mmHg 70%
    17:00 +3°C° 0 mm 2 mps 668 mmHg 73%
    18:00 +3°C° 0 mm 2 mps 668 mmHg 75%
    19:00 +2°C° 0 mm 2 mps 668 mmHg 77%
    20:00 +2°C° 0 mm 2 mps 667 mmHg 79%
    21:00 +1°C° 0 mm 2 mps 667 mmHg 80%
    22:00 0°C° 0 mm 3 mps 667 mmHg 82%
    23:00 0°C° 0 mm 3 mps 666 mmHg 84%

    23 January, Wednesday

    Time Temperature Precipitation Wind Pressure Humidity
    00:00 0°C° 0 mm 3 mps 665 mmHg 86%
    01:00 -1°C° 0 mm 4 mps 665 mmHg 85%
    02:00 -1°C° 0 mm 4 mps 664 mmHg 84%
    03:00 -1°C° 0 mm 4 mps 663 mmHg 84%
    04:00 -1°C° 0.3 mm 4 mps 663 mmHg 86%
    05:00 -1°C° 0.3 mm 4 mps 662 mmHg 88%
    06:00 -1°C° 0.3 mm 4 mps 662 mmHg 90%
    07:00 0°C° 0.4 mm 5 mps 662 mmHg 88%
    08:00 0°C° 0.4 mm 5 mps 662 mmHg 87%
    09:00 +1°C° 0.4 mm 6 mps 662 mmHg 85%
    10:00 0°C° 0.1 mm 7 mps 662 mmHg 80%
    11:00 +2°C° 0.1 mm 7 mps 662 mmHg 76%
    12:00 +1°C° 0.1 mm 8 mps 661 mmHg 71%
    13:00 +2°C° 0 mm 9 mps 661 mmHg 70%
    14:00 +2°C° 0 mm 10 mps 660 mmHg 68%
    15:00 +2°C° 0 mm 11 mps 659 mmHg 66%
    16:00 +2°C° 0 mm 10 mps 659 mmHg 71%
    17:00 +1°C° 0 mm 10 mps 658 mmHg 76%
    18:00 0°C° 0 mm 10 mps 658 mmHg 82%
    19:00 0°C° 0 mm 10 mps 658 mmHg 83%
    20:00 -1°C° 0 mm 11 mps 657 mmHg 85%
    21:00 -1°C° 0 mm 12 mps 657 mmHg 86%
    22:00 -1°C° 0 mm 12 mps 656 mmHg 86%
    23:00 0°C° 0 mm 12 mps 656 mmHg 86%

    24 January, Thursday

    Time Temperature Precipitation Wind Pressure Humidity
    00:00 0°C° 0 mm 12 mps 655 mmHg 85%
    01:00 0°C° 0.4 mm 13 mps 655 mmHg 86%
    02:00 0°C° 0.4 mm 13 mps 655 mmHg 87%
    03:00 0°C° 0.4 mm 13 mps 654 mmHg 87%
    04:00 -1°C° 1.5 mm 11 mps 654 mmHg 88%
    05:00 0°C° 1.5 mm 9 mps 654 mmHg 90%
    06:00 -1°C° 1.5 mm 8 mps 654 mmHg 91%
    07:00 -2°C° 0.9 mm 8 mps 655 mmHg 89%
    08:00 -2°C° 0.9 mm 8 mps 655 mmHg 87%
    09:00 -4°C° 0.9 mm 8 mps 656 mmHg 85%
    10:00 -4°C° 0.3 mm 9 mps 656 mmHg 80%
    11:00 -4°C° 0.3 mm 10 mps 656 mmHg 75%
    12:00 -4°C° 0.3 mm 11 mps 657 mmHg 70%
    13:00 -4°C° 0.2 mm 11 mps 657 mmHg 70%
    14:00 -4°C° 0.2 mm 11 mps 657 mmHg 70%
    15:00 -4°C° 0.2 mm 10 mps 657 mmHg 69%
    16:00 -5°C° 0.1 mm 9 mps 657 mmHg 73%
    17:00 -4°C° 0.1 mm 7 mps 657 mmHg 76%
    18:00 -5°C° 0.1 mm 5 mps 657 mmHg 79%
    19:00 -5°C° 0.1 mm 5 mps 657 mmHg 81%
    20:00 -6°C° 0.1 mm 5 mps 657 mmHg 82%
    21:00 -6°C° 0.1 mm 5 mps 658 mmHg 83%
    22:00 -6°C° 0.1 mm 5 mps 657 mmHg 84%
    23:00 -6°C° 0.1 mm 5 mps 657 mmHg 84%
    Show more